Weather Roundup
Issued by NWS Chicago, IL

Home | Current Version | Previous Version | Text Only | Print | Product List | Glossary On
Versions: 1 2 3 4 5 6 7 8 9 10 11 12 13 14 15 16 17 18 19 20 21 22 23 24 25 26 27 28 29 30 31 32 33 34 35 36 37 38 39 40 41 42 43 44 45 46 47 48 49 50
000
NZUS59 KLOT 191610
HRRLOT

CHICAGO AREA WEATHER ROUNDUP
NATIONAL WEATHER SERVICE CHICAGO/ROMEOVILLE IL
1000 AM CST FRI DEC 19 2014

NOTE: "FAIR" INDICATES FEW OR NO CLOUDS BELOW 12,000 FEET WITH NO
SIGNIFICANT WEATHER AND/OR OBSTRUCTIONS TO VISIBILITY.

* THESE STATIONS ARE NOT UNDER NWS QUALITY CONTROL. THEY ALSO MAY NOT
  REPORT WEATHER SUCH AS PRECIPITATION OR FOG.

ILZ005-006-012>014-019>023-191700-
NORTHEAST ILLINOIS

CITY           SKY/WX    TMP DP  RH WIND       PRES   REMARKS
OHARE          CLOUDY    29  20  69 NW6       30.32R WCI  23
MIDWAY         CLOUDY    32  22  66 N5        30.32R WCI  27
AURORA         PTSUNNY   30  22  72 NE6       30.32R WCI  24
LANSING*       CLOUDY    31  25  78 CALM      30.32R
JOLIET*        CLOUDY    30  24  78 CALM      30.33R
WAUKEGAN       CLOUDY    28  20  71 N5        30.31R WCI  23
DUPAGE AIRPORT CLOUDY    29  22  75 N3        30.31R
WHEELING       CLOUDY    28  21  75 NW5       30.34R WCI  23
KANKAKEE*      CLOUDY    27  23  85 W3        30.34R
MORRIS*        SUNNY     29  26  86 CALM      30.32R
LEWIS AIRPORT* CLOUDY    30  23  77 CALM      30.32R
NORTHERLY IS     N/A     30  23  75 MISG        N/A
$$

WIZ051-052-058>065-066-070>072-191700-
SOUTHEAST WISCONSIN

CITY           SKY/WX    TMP DP  RH WIND       PRES   REMARKS
MILWAUKEE      MOSUNNY   29  18  63 NW8       30.30F WCI  21
KENOSHA*       CLOUDY    28  18  66 NW6       30.31R WCI  22
RACINE*        PTSUNNY   29  18  63 NW8       30.32S WCI  21
BURLINGTON     CLOUDY    25  17  70 CALM      30.31S
WAUKESHA       CLOUDY    25  19  80 NW5       30.31S WCI  19
WEST BEND      CLOUDY    27  21  80 NW5       30.30S WCI  21
$$

INZ001>003-010>013-019-020-191700-
NORTHWEST INDIANA

CITY           SKY/WX    TMP DP  RH WIND       PRES   REMARKS
GARY*          CLOUDY    34  19  55 CALM      30.33R
MICHIGAN CITY* NOT AVBL
RENSSELAER*    NOT AVBL
VALPARAISO     CLOUDY    31  23  72 NW8       30.31R WCI  23
$$

LMZ740>746-191700-
SOUTHERN LAKE MICHIGAN

STATION/POSITION TIME  SKY/WX   TEMP WIND        PRES    VSBY
                                AIR  DIR/SP/G
                 (UTC)          (F)  (DEG/KT/KT) (MB)    (MI)
HARRISON CRIB    1600            30  310/  6/  8   N/A
BURNHAM HARBOR   1600            30  350/  4/  9   N/A
CALUMET HARBOR   1600            31  320/  6/  8 1025.4R
BURNS HARBOR     NOT AVBL
MICHIGAN CITY    NOT AVBL
$$

ABBREVIATIONS USED IN REMARKS
   TC - TEMPERATURE IN CELSIUS
  WCI - WIND CHILL INDEX
   HX - HEAT INDEX
  VSB - VISIBILITY
$$



USA.gov is the U.S. government's official web portal to all federal, state and local government web resources and services.